User: anonymous   Login
Location: Hamburg
(53.5500°N, 10.0000°E)
Time: 15:01:10
(UTC+02:00)
Language:

Courier 1B - Orbit

View from above orbital plane
View from above orbital plane
View from above satellite
View from above satellite

Ground track
Ground track

The orbit data is extracted from the following two-line orbital elements,

1    58U 60013A   17145.05538035 +.00000101 +00000-0 +21834-4 0  9994
2    58 028.3292 013.5696 0165023 161.7523 198.9028 13.46308885787659
Epoch (UTC): 25 May 2017 01:19:44
Eccentricity: 0.0165023
inclination: 28.3292°
perigee height: 962 km
apogee height: 1209 km
right ascension of ascending node: 13.5696°
argument of perigee: 161.7523°
revolutions per day: 13.46308885
mean anomaly at epoch: 198.9028°
orbit number at epoch: 78765

The dashed part of the orbit path shows where the satellite is in the earth's shadow,  

DLR